THORAD AGENA D DEB, 4868

Orbit data source: Space-Track

THORAD AGENA D DEB, 4868 is space debris in SSO originally from a launch on Wed, 08 Apr 1970 UTC launched from the Air Force Western Test Range (AFWTR). Debris objects in space refer to the collection of defunct objects orbiting the Earth. Examples of debris include non-operational satellites, rocket bodies, and fragments generated from explosions, collisions, or faulty payload assembly.

Loading next visibility...
Identifier
4868, 1970-025EY
Orbit
SSO
Country
Flag of USUS
Related business
Manufacturer
Unknown
Mission
Spacecraft
Bus & Motor
Unknown
Mass
Unknown
Launch date (UTC)
1970-04-08 (56 years ago)
Launch vehicle
Unknown
Launch site
Air Force Western Test Range (AFWTR)
Object type
Payload
Rocket body
Debris
Shape & HBR
Unknown shape, 0.1 m
Radar Cross Section
Small (<0.1 m²)

Expand to show TLE details & history
Last TLE update: 9 hours ago

TLE from 9 hours ago
0 THORAD AGENA D DEB
1 04868U 70025EY  25353.11981013  .00000654  00000-0  46315-3 0  9999
2 04868  99.7364  48.6290 0055359 184.5696 175.4968 14.01064197809999
Epoch: 2025-12-19T02:52Z
TLE epoch observation values (Epoch: 2025-12-19T02:52:31.595Z)
Latitude
-0.00002°
Longitude
-82.46818°
Altitude
933.088 km
Speed
7.365 km/s
True Right ascension
03h 14m 30s
True Declination
0° 00' 00"
Sunlit
Object was in full shadow at epoch
Visualization orbit readout
Latitude
Unknown
Longitude
Unknown
Altitude
Unknown
Speed
Unknown
Apparent Right ascension
Unknown
Apparent Declination
Unknown
Sunlit
N/A
Visualization observer readout
Local Sidereal Time
10:56:39
Azimuth
Unknown
Elevation
Unknown
Doppler factor
Unknown
Orbital elements
Apogee altitude
927.569 km
Perigee altitude
847.127 km
Semi-major axis
7,265.485 km
Eccentricity
0.00554
Inclination
99.7364°
RAAN
48.629°
Arg. of periapsis
184.5696°
True anomaly
175.54627°
Mean anomaly
175.4968°
Eccentric anomaly
175.52157°
Mean motion
3.50466 °/min
Orbital period
102.72 mins
BSTAR
0.00046315
Loading maneuver chart data...
Computing Atmospheric mass density...
Loading historical data...
Loading historical data...
Loading historical data...
Loading historical data...
Loading historical data...
Loading historical data...
Loading historical data...

Documentation

Showing up to 5 results
|